CAPE
18 23 16 9 11 8 17 12 6 2 6 55 0 0 6 8 11 7 0 0 0 0 0 0 0 0 0 0 0 0 0 0 0 0 0 0 0 0 0 0 0 0 0 0 82
27 18 22 16 35 6 9 13 17 4 5 7 42 0 9 11 0 0 0 0 0 0 0 0 0 0 0 0 0 0 0 0 0 0 0 0 0 0 0 0 0 0 1 148 191
35 24 27 38 31 42 30 30 35 14 1 4 47 22 8 9 0 0 0 0 0 0 0 0 0 0 0 0 0 0 0 0 0 0 0 0 0 0 0 0 0 0 7 120 172
56 64 32 44 49 19 31 20 30 38 5 9 26 40 0 0 0 0 47 0 2 11 0 0 0 0 0 0 0 0 0 0 0 0 0 0 0 0 0 0 0 0 0 0 29
60 58 57 62 40 51 24 17 19 25 11 19 12 37 1 0 0 0 0 2 30 30 0 0 0 0 0 0 0 0 0 0 0 0 0 0 0 0 0 0 0 0 0 0 0
60 72 98 82 76 67 39 16 27 36 19 8 1 50 0 0 0 0 18 100 11 30 0 0 0 0 0 0 0 0 0 0 0 0 0 0 0 0 0 0 0 0 0 0 0
53 84 113 125 88 89 93 61 48 60 15 0 0 11 2 0 0 0 109 105 73 30 0 0 18 0 0 0 0 0 0 0 0 0 0 0 0 0 0 0 0 0 0 0 0
46 73 97 120 112 75 68 64 49 52 32 2 0 6 0 0 0 0 0 0 15 38 27 30 38 4 0 0 0 0 0 0 0 0 0 0 0 0 0 0 0 0 0 0 0
44 68 86 107 124 86 89 115 114 77 32 14 0 4 0 0 0 0 0 0 0 18 36 33 11 6 0 0 0 0 0 0 0 0 0 0 0 0 0 0 0 0 0 0 0
63 78 74 78 57 54 65 81 19 44 16 18 0 1 0 0 0 0 0 0 8 78 30 13 4 6 0 1 0 0 0 0 0 0 0 0 0 0 0 0 0 0 0 0 0
42 28 36 17 67 70 51 0 0 8 15 0 3 0 0 0 0 0 0 0 53 46 11 3 4 3 8 0 0 0 0 0 0 0 0 0 0 0 0 0 0 0 0 0 0
28 19 18 26 71 89 46 3 0 4 0 0 0 0 0 0 0 0 0 1 14 22 8 2 5 0 5 0 1 8 0 0 0 0 0 0 0 0 0 0 0 0 0 0 0
14 25 26 30 19 13 0 0 3 3 0 0 0 0 0 0 0 0 0 5 0 1 1 1 0 0 0 0 1 0 0 0 0 0 0 0 0 0 0 0 0 0 0 0 0
3 7 15 24 5 6 0 15 6 1 0 0 3 8 6 0 0 0 3 3 6 4 0 0 0 0 0 0 0 0 0 0 0 0 0 0 0 0 0 0 0 0 0 0 0
4 8 47 61 8 15 2 4 3 0 0 0 5 7 1 0 0 1 0 0 0 2 0 0 0 0 0 0 0 0 0 0 0 0 0 0 0 0 0 0 0 0 0 0 0
56 61 68 17 4 14 2 1 0 0 0 0 1 1 8 0 0 13 8 0 2 0 0 0 0 0 0 0 0 0 0 0 0 0 0 0 0 0 0 0 0 0 0 0 0
20 14 18 27 20 12 0 0 0 0 0 0 1 12 1 7 7 1 0 1 1 0 0 0 0 0 0 0 0 0 0 0 0 0 0 0 0 0 0 0 0 0 0 0 0
0 5 38 21 3 0 0 0 0 0 0 0 4 8 5 8 17 4 2 0 0 0 0 0 0 0 0 0 0 0 0 0 0 0 0 0 0 0 0 0 0 0 0 0 0
0 0 0 7 0 1 0 0 0 0 0 8 6 4 1 6 1 3 0 0 0 0 0 0 0 0 0 0 0 0 0 0 0 0 0 0 0 0 0 0 0 0 0 0 0
0 0 4 10 0 1 0 0 0 1 0 0 0 0 0 3 0 0 0 0 0 0 0 0 0 0 0 0 0 0 0 0 0 0 0 0 0 0 0 0 0 0 0 0 0
0 0 0 0 1 1 0 0 1 2 0 0 0 0 0 0 0 0 0 0 0 0 0 0 0 0 0 0 0 0 0 0 0 0 0 0 0 0 0 0 0 0 0 0 0
0 0 0 0 0 0 0 0 1 0 0 0 0 0 0 2 0 0 0 0 0 0 0 0 0 0 0 0 0 0 0 0 0 0 0 0 0 0 0 0 0 0 0 0 0
0 0 0 0 0 0 0 0 8 0 0 0 0 0 0 0 0 0 0 0 0 0 0 0 0 0 0 0 0 0 0 0 0 0 0 0 0 0 0 0 0 0 0 3 0
0 0 0 0 0 0 0 0 6 1 0 0 0 0 0 0 0 0 0 0 0 0 0 0 0 0 0 0 0 0 0 0 0 0 0 0 0 0 0 0 0 0 4 0 0
0 1 0 0 0 0 0 0 0 0 0 0 0 0 1 6 0 0 0 0 0 0 0 0 0 0 0 0 0 0 0 0 0 0 0 0 0 0 0 0 0 1 0 0 0
0 0 0 0 0 0 0 0 0 0 1 0 0 0 0 1 0 0 0 0 0 0 0 0 0 0 0 0 0 0 0 0 0 0 0 0 0 0 0 1 0 1 0 0 0
0 0 1 0 0 0 0 0 0 0 0 0 1 0 0 0 0 0 0 0 0 0 0 0 0 0 0 0 0 0 0 0 0 0 0 0 0 0 0 0 0 0 0 0 0
CIN
-0 -1 -0 -1 -0 -0 -1 -2 -2 -2 -23 -56 -1 -0 -0 -0 -0 -0 -0 -0 -0 -0 -0 -0 -0 -0 -0 -0 -0 -0 -0 -0 -0 -0 -0 -0 -0 -0 -0 -0 -0 -0 -0 -0 -110
-0 -0 -0 -0 -0 -1 -1 -0 -1 -1 -0 -3 -0 -0 -0 -0 -0 -0 -0 -0 -0 -0 -0 -0 -0 -0 -0 -0 -0 -0 -0 -0 -0 -0 -0 -0 -0 -0 -0 -0 -0 -0 -17 -89 -105
-1 -1 -1 -0 -0 -0 -3 -0 -1 -3 -1 -0 -10 -0 -0 -2 -0 -0 -0 -0 -0 -0 -0 -0 -0 -0 -0 -0 -0 -0 -0 -0 -0 -0 -0 -0 -0 -0 -0 -0 -0 -0 -53 -76 -76
-0 -0 -1 -0 -1 -0 -1 -0 -0 -1 -6 -0 -23 -0 -0 -0 -0 -0 -9 -0 -0 -4 -0 -0 -0 -0 -0 -0 -0 -0 -0 -0 -0 -0 -0 -0 -0 -0 -0 -0 -0 -0 -0 -0 -48
-0 -3 -2 -0 -0 -0 -1 -1 -1 -0 -1 -9 -14 -18 -0 -0 -0 -0 -0 -4 -1 -7 -0 -0 -0 -0 -0 -0 -0 -0 -0 -0 -0 -0 -0 -0 -0 -0 -0 -0 -0 -0 -0 -0 -0
-0 -1 -0 -2 -0 -0 -0 -2 -1 -0 -0 -28 -2 -10 -0 -0 -0 -0 -15 -8 -2 -5 -0 -0 -0 -0 -0 -0 -0 -0 -0 -0 -0 -0 -0 -0 -0 -0 -0 -0 -0 -0 -0 -0 -0
-1 -0 -0 -0 -0 -0 -0 -1 -0 -0 -3 -0 -0 -32 -0 -0 -0 -0 -14 -15 -16 -19 -0 -0 -21 -3 -0 -0 -0 -0 -0 -0 -0 -0 -0 -0 -0 -0 -0 -0 -0 -0 -0 -0 -0
-0 -0 -0 -0 -0 -0 -3 -4 -9 -8 -3 -24 -0 -1 -0 -0 -0 -0 -0 -0 -3 -12 -21 -28 -20 -17 -0 -0 -0 -0 -0 -0 -0 -0 -0 -0 -0 -0 -0 -0 -0 -0 -0 -0 -0
-0 -0 -0 -0 -0 -0 -0 -6 -0 -8 -14 -22 -0 -8 -0 -0 -0 -0 -0 -0 -0 -11 -14 -21 -17 -2 -0 -0 -0 -0 -0 -0 -0 -0 -0 -0 -0 -0 -0 -0 -0 -0 -0 -0 -0
-0 -0 -0 -0 -0 -3 -2 -3 -67 -33 -40 -6 -0 -0 -0 -0 -0 -0 -0 -0 -2 -5 -3 -7 -6 -3 -1 -1 -0 -0 -0 -0 -0 -0 -0 -0 -0 -0 -0 -0 -0 -0 -0 -0 -0
-1 -0 -0 -0 -2 -2 -1 -9 -0 -20 -2 -0 -0 -0 -0 -0 -0 -0 -0 -0 -5 -3 -0 -10 -31 -25 -1 -0 -0 -0 -0 -0 -0 -0 -0 -0 -0 -0 -0 -0 -0 -0 -0 -0 -0
-1 -0 -0 -26 -0 -0 -2 -0 -0 -2 -1 -0 -0 -0 -0 -0 -0 -0 -0 -2 -7 -2 -5 -2 -7 -4 -6 -5 -1 -2 -0 -0 -0 -0 -0 -0 -0 -0 -0 -0 -0 -0 -0 -0 -0
-0 -0 -0 -2 -7 -24 -0 -0 -6 -6 -0 -0 -0 -0 -0 -0 -0 -0 -0 -7 -0 -0 -4 -1 -0 -4 -0 -1 -7 -12 -0 -0 -0 -0 -0 -0 -0 -0 -0 -0 -0 -0 -0 -0 -0
-0 -4 -54 -48 -3 -3 -0 -8 -18 -1 -0 -0 -0 -1 -4 -0 -0 -0 -12 -89 -1 -1 -0 -0 -0 -1 -24 -0 -0 -0 -0 -0 -0 -0 -0 -0 -0 -0 -0 -0 -0 -0 -0 -0 -0
-0 -4 -24 -23 -3 -1 -12 -33 -24 -0 -0 -0 -0 -1 -1 -0 -4 -3 -2 -0 -2 -2 -0 -0 -0 -0 -0 -0 -0 -0 -0 -0 -0 -0 -0 -0 -0 -0 -0 -0 -0 -0 -0 -0 -0
-8 -3 -4 -42 -10 -8 -27 -18 -0 -0 -0 -0 -0 -4 -2 -0 -0 -13 -11 -0 -6 -0 -0 -0 -0 -0 -0 -0 -0 -0 -0 -0 -0 -0 -0 -0 -0 -0 -0 -0 -0 -0 -0 -0 -0
-9 -17 -20 -36 -2 -30 -0 -0 -0 -0 -0 -0 -0 -1 -0 -1 -1 -8 -12 -15 -6 -1 -0 -0 -0 -0 -0 -0 -0 -0 -0 -0 -0 -0 -0 -0 -0 -0 -0 -0 -0 -0 -0 -0 -0
-14 -29 -6 -17 -23 -0 -0 -0 -0 -0 -0 -0 -0 -2 -1 -5 -1 -8 -14 -0 -0 -0 -0 -0 -0 -0 -0 -0 -0 -0 -0 -0 -0 -0 -0 -0 -0 -0 -0 -0 -0 -0 -0 -0 -0
-0 -0 -0 -1 -0 -0 -0 -0 -0 -0 -0 -0 -1 -2 -1 -9 -5 -4 -0 -0 -0 -0 -0 -0 -0 -0 -0 -0 -0 -0 -0 -0 -0 -0 -0 -0 -0 -0 -0 -0 -0 -0 -0 -0 -0
-0 -0 -0 -4 -0 -3 -0 -0 -0 -0 -1 -0 -0 -0 -0 -11 -7 -0 -0 -1 -0 -0 -0 -0 -0 -0 -0 -2 -0 -0 -0 -0 -0 -0 -0 -0 -0 -0 -0 -0 -0 -0 -0 -0 -0
-0 -0 -0 -0 -8 -0 -0 -0 -0 -0 -0 -0 -0 -0 -0 -1 -5 -0 -0 -0 -0 -0 -0 -0 -0 -0 -0 -0 -0 -0 -0 -0 -0 -0 -0 -0 -0 -0 -0 -0 -0 -0 -0 -0 -0
-0 -0 -0 -0 -0 -0 -0 -0 -0 -0 -0 -0 -0 -0 -0 -9 -0 -1 -0 -0 -0 -0 -0 -0 -0 -0 -0 -0 -0 -0 -0 -0 -0 -0 -0 -0 -0 -0 -0 -0 -0 -0 -0 -0 -0
-0 -0 -0 -0 -0 -0 -0 -0 -12 -2 -0 -0 -0 -0 -0 -0 -0 -0 -0 -0 -0 -0 -0 -0 -0 -0 -0 -0 -0 -0 -0 -0 -0 -0 -0 -0 -0 -0 -0 -0 -0 -0 -0 -8 -0
-0 -0 -0 -0 -0 -0 -0 -0 -2 -6 -0 -0 -0 -0 -0 -0 -0 -0 -0 -0 -0 -0 -5 -0 -0 -0 -0 -0 -0 -0 -0 -0 -0 -0 -0 -0 -0 -0 -0 -0 -0 -0 -2 -0 -1
-0 -0 -0 -0 -0 -0 -0 -0 -0 -0 -0 -0 -0 -0 -5 -5 -0 -0 -0 -0 -0 -2 -0 -0 -0 -0 -0 -0 -0 -0 -0 -0 -0 -0 -0 -0 -0 -0 -0 -0 -0 -0 -0 -0 -0
-0 -0 -0 -0 -0 -0 -0 -0 -0 -0 -9 -0 -0 -0 -0 -6 -0 -0 -0 -0 -0 -0 -0 -0 -0 -0 -0 -0 -0 -0 -0 -0 -0 -0 -0 -0 -0 -0 -0 -0 -0 -0 -0 -0 -0
-0 -0 -0 -0 -0 -0 -0 -0 -0 -0 -0 -1 -14 -7 -3 -21 -0 -0 -0 -0 -0 -0 -0 -0 -0 -0 -0 -0 -0 -0 -0 -0 -0 -0 -0 -0 -0 -0 -5 -0 -0 -0 -0 -0 -0
Wind_Speed
34 35 35 33 32 30 31 35 35 35 34 31 27 26 27 27 28 30 36 26 26 20 16 19 22 24 22 24 22 21 31 35 31 27 27 24 27 27 26 24 19 18 14 16 3
35 35 36 36 34 34 32 34 35 35 35 34 22 26 25 25 30 38 28 27 24 23 23 23 23 22 25 25 25 27 34 33 27 29 28 29 29 29 27 24 21 18 15 8 4
36 37 37 37 36 35 35 35 35 36 36 36 30 19 23 22 30 34 29 28 25 26 25 23 21 22 27 24 26 28 37 35 30 32 28 28 32 26 26 29 22 21 13 10 9
40 40 40 38 38 38 35 36 36 36 36 34 33 17 17 22 33 22 20 22 21 19 24 24 24 24 28 29 28 32 32 32 28 33 33 34 31 31 30 27 23 22 21 23 17
41 39 39 41 41 40 38 38 38 36 36 34 32 16 17 27 32 21 20 18 18 18 22 24 25 25 27 30 30 35 33 31 33 34 32 33 33 34 32 31 31 23 24 27 28
38 37 36 37 37 38 39 38 37 35 33 31 30 22 21 34 25 24 17 14 20 20 23 23 25 24 27 26 29 27 34 35 33 32 31 35 37 33 31 27 34 35 33 29 32
34 33 32 32 34 34 36 36 35 33 33 32 32 27 26 27 22 20 13 13 17 19 21 22 22 24 23 27 29 30 28 29 30 29 32 31 48 42 34 38 43 43 42 38 32
31 30 28 28 32 34 33 31 32 33 33 34 32 27 31 27 27 19 16 14 16 19 22 20 20 24 23 21 21 25 27 35 29 31 32 31 52 32 29 35 44 46 45 43 39
30 27 28 31 33 33 30 32 32 34 33 32 29 27 29 20 26 25 18 18 16 15 17 14 17 22 23 24 24 26 32 32 34 30 31 28 38 35 33 34 38 40 41 42 44
27 24 27 24 23 27 28 29 32 31 28 25 27 24 27 28 22 21 21 19 18 14 14 18 20 25 25 24 30 30 31 31 33 26 27 34 39 37 32 31 34 37 41 41 41
25 17 19 18 15 16 24 28 22 24 29 31 29 25 21 18 16 20 19 16 16 18 24 20 24 28 27 25 22 24 25 28 30 28 33 37 40 40 40 40 42 43 41 41 40
23 3 13 13 19 23 20 22 23 20 29 35 27 33 21 17 18 18 20 18 19 21 18 23 30 24 21 23 28 29 30 33 32 27 33 38 47 46 43 46 42 44 47 44 43
21 8 5 11 22 24 22 24 21 20 26 30 31 27 17 16 18 17 17 18 18 19 19 20 23 17 19 22 24 24 27 28 30 31 29 37 46 40 37 36 34 36 37 38 40
14 5 15 18 1 23 22 18 22 23 26 27 29 24 19 13 15 15 17 16 18 20 14 16 19 17 18 21 20 24 20 22 26 29 34 26 41 35 35 36 33 29 27 30 32
13 10 29 27 3 12 17 21 23 26 28 24 22 18 18 19 13 18 15 17 17 16 18 20 16 14 17 22 20 22 18 21 24 27 32 29 32 30 28 31 30 24 22 26 30
17 10 19 16 7 15 15 22 28 20 22 24 21 23 19 14 17 14 15 14 12 12 13 15 15 17 18 16 16 14 19 22 23 25 30 26 24 28 23 22 18 20 26 31 30
7 14 16 15 13 19 19 23 25 19 18 23 26 22 16 17 15 17 15 16 17 15 15 14 16 15 13 15 16 15 18 23 24 24 27 23 25 29 25 24 23 35 35 32 29
13 11 10 14 20 27 17 21 18 18 20 23 22 18 18 15 18 14 16 19 17 16 14 17 21 18 17 18 17 17 16 20 25 24 25 24 26 23 22 28 30 30 31 31 32
8 10 21 22 26 19 13 17 17 18 19 24 19 17 17 17 18 19 21 21 19 18 17 17 17 14 13 13 12 16 18 17 22 24 28 25 28 30 28 23 26 26 27 30 32
13 21 19 19 16 8 12 12 16 17 19 20 22 22 22 19 18 19 22 25 22 20 15 14 13 14 14 14 15 15 9 16 19 24 27 26 29 30 27 28 26 29 33 35 36
19 19 15 12 13 11 12 11 12 17 17 18 19 19 17 18 15 18 24 21 29 24 20 16 13 15 14 18 13 14 16 17 18 20 25 29 26 24 24 24 30 35 40 42 45
19 15 19 13 19 17 5 9 10 20 19 19 12 15 20 16 16 20 30 20 26 24 23 18 15 17 21 18 19 19 18 14 20 23 22 28 33 24 22 24 34 52 45 44 45
19 18 16 14 17 18 19 8 11 14 14 17 17 17 14 14 18 18 20 21 24 22 20 17 17 16 18 20 20 20 16 12 17 21 15 30 26 19 30 43 44 47 48 44 40
16 20 18 6 7 9 11 5 3 4 5 9 12 6 10 15 15 17 16 16 17 18 15 14 18 20 21 19 16 19 14 8 19 12 7 14 24 27 34 35 42 45 37 34 34
19 22 17 17 6 5 5 5 3 3 4 5 2 3 9 16 11 15 14 14 14 13 14 15 21 22 25 27 25 27 27 25 22 20 21 21 26 31 26 29 17 39 25 23 26
18 19 18 15 11 11 8 8 7 7 7 6 7 17 13 11 18 13 11 14 15 15 14 15 20 21 25 24 25 29 29 28 25 23 23 22 20 19 14 22 35 33 28 21 17
14 15 15 16 13 12 13 12 11 11 11 9 7 7 7 11 10 11 12 9 12 9 13 13 17 21 24 21 23 25 24 22 18 13 6 3 7 23 18 34 30 28 25 19 11
Wind_Direction
339 334 331 331 326 325 316 301 292 286 286 283 277 279 276 273 273 263 255 262 254 260 260 260 255 253 256 255 255 256 254 253 257 260 263 268 271 278 286 281 278 286 286 294 278
334 330 327 323 321 318 314 304 292 286 281 287 280 274 278 276 268 258 262 259 255 247 255 253 252 247 249 250 252 249 252 255 262 262 266 267 273 277 279 275 276 284 293 296 258
330 326 322 317 315 313 309 301 293 283 279 276 284 278 274 278 267 261 258 251 251 246 250 253 255 247 247 251 249 254 254 255 262 263 270 270 270 277 276 268 278 278 285 279 275
329 323 319 315 310 307 303 296 289 283 274 277 282 270 276 265 254 271 268 240 247 240 244 246 248 246 248 248 251 256 259 259 266 265 268 268 272 270 271 271 279 280 283 277 279
330 326 320 314 306 302 298 290 284 280 271 267 268 266 269 258 253 273 270 234 237 238 239 241 242 245 247 250 254 255 259 263 264 266 269 270 269 270 269 273 273 281 279 275 274
338 332 326 319 313 303 295 290 279 277 268 267 263 259 258 251 264 263 272 226 236 239 241 241 245 247 254 256 250 265 259 263 265 268 271 269 269 271 270 275 272 272 273 276 273
345 340 336 328 318 308 299 287 277 273 267 262 257 264 251 253 265 250 255 243 236 237 241 243 248 248 257 256 259 260 263 265 266 271 272 278 262 263 271 269 267 268 269 273 277
351 346 344 337 321 307 300 294 276 270 264 256 257 263 248 251 246 246 246 247 248 247 245 246 253 253 257 262 259 258 265 261 270 271 273 272 258 273 276 273 270 269 269 271 274
359 356 348 331 314 304 300 286 280 265 260 251 248 248 244 253 240 237 245 241 246 249 245 248 250 251 251 250 258 260 261 265 271 274 272 268 271 276 275 274 274 274 273 272 271
3 2 351 280 275 297 294 289 275 262 253 241 238 236 244 239 234 234 242 239 243 236 241 243 248 245 245 245 252 260 263 267 268 275 282 272 272 274 279 281 278 277 275 274 271
5 10 275 271 261 260 281 300 276 248 231 220 223 234 239 235 223 226 231 232 238 236 234 239 241 239 242 246 262 265 269 269 272 278 280 274 275 275 274 276 275 274 274 274 274
10 345 259 256 270 277 263 286 259 241 219 219 229 233 241 224 220 221 224 229 232 234 235 239 241 248 250 259 256 267 270 270 276 279 283 279 272 274 275 273 277 275 272 273 275
22 39 243 260 282 309 305 269 245 223 210 215 223 226 212 217 223 208 214 232 229 233 238 238 248 247 252 255 260 270 272 274 276 284 287 285 276 281 286 284 284 281 278 279 277
19 4 266 273 358 326 271 259 213 203 198 210 210 212 210 211 218 215 223 231 237 231 233 250 255 245 252 257 267 269 284 284 283 285 279 297 279 286 289 286 285 287 288 288 286
289 291 275 276 242 232 244 206 197 189 195 196 200 197 211 222 186 216 238 240 232 233 248 250 249 250 256 260 269 275 285 286 288 287 287 288 285 288 298 292 293 300 295 298 294
294 288 263 242 93 204 200 183 177 188 199 208 205 200 202 206 213 202 235 241 234 238 256 256 258 265 267 275 274 277 284 287 290 290 283 289 286 291 302 305 310 310 303 301 302
32 76 104 142 185 180 188 181 179 205 201 188 190 188 186 205 209 220 221 218 235 231 240 254 263 271 270 267 274 277 280 280 282 282 281 295 291 288 299 302 306 304 301 306 306
83 106 120 139 142 152 182 186 186 202 209 201 179 177 202 202 213 219 221 224 237 245 240 248 254 259 266 268 271 269 276 276 279 284 290 300 293 302 315 312 312 313 310 308 306
114 113 106 120 131 152 194 183 193 194 191 180 171 188 202 216 219 223 226 226 235 243 249 250 260 272 275 271 274 273 274 290 287 295 295 299 300 306 314 321 317 321 326 323 319
130 110 109 118 135 200 188 194 203 204 170 185 197 209 207 215 218 224 220 226 231 234 249 253 260 265 266 268 271 282 297 292 296 296 297 304 307 308 316 318 322 321 319 319 316
116 116 124 120 136 168 187 187 189 183 199 205 209 211 211 216 226 226 222 236 221 228 237 247 263 258 262 263 273 277 286 294 303 305 307 309 311 329 329 331 322 319 318 316 311
114 123 114 111 119 135 170 195 200 194 207 209 220 216 218 229 227 227 213 234 225 230 233 248 258 257 249 264 270 276 284 300 296 301 312 303 305 331 344 342 327 310 322 321 316
117 116 129 133 121 116 129 177 195 203 218 223 229 232 225 229 229 232 233 240 224 234 235 247 261 262 263 268 278 282 295 304 309 312 324 289 316 358 321 302 314 318 323 326 328
112 96 116 252 222 159 142 146 189 258 282 249 235 233 225 238 241 235 236 245 237 245 248 263 261 254 257 276 299 288 304 163 188 202 322 217 254 270 289 294 302 305 339 343 343
78 80 125 142 216 256 285 225 221 243 228 228 50 80 239 236 246 242 245 244 250 252 259 269 258 270 268 261 276 260 238 210 198 207 224 249 261 277 283 289 321 338 359 359 359
81 81 93 169 234 182 294 306 303 284 290 276 254 213 244 244 240 243 249 249 254 255 267 278 274 285 268 276 277 235 231 222 217 222 230 246 256 263 272 295 355 360 9 15 13
84 36 34 84 314 312 337 335 330 323 318 296 303 312 299 276 275 270 271 263 283 282 276 290 290 282 264 269 262 246 223 205 200 178 130 138 17 280 283 351 6 13 16 23 24